Date String (YYYY-MM-DD hh:mm:ss) UTC,Instrument flags,Ambient pressure (hPa),Sample flow (lpm),Bypass flow (lpm),Sample temperature (°C),Ambient temperature (°C),ASC tube jacket temperature (°C),LED temperature (°C),Box temperature (°C),Sample RH (%),Span deviation,Mass concentration (μg/m³),Mass concentration (μg/m³),Mass concentration (μg/m³)
DateTimeUTC,F1_M11,P_M11,Q1_M11,Q2_M11,T1_M11,T2_M11,T3_M11,T4_M11,T5_M11,U1_M11,ZSPAN_M11,X0_M11,X2_M11,X1_M11
2022-07-11 23:00:00,,0832.1,5.01,0.00,29.7,28.0,00.0,38.3,31.6,31.7,0000.0,0018.25,0009.15,0007.92
2022-07-11 23:01:00,,0832.1,5.00,0.00,29.7,27.4,00.0,38.3,31.5,31.7,0000.0,0017.69,0009.13,0007.91
2022-07-11 23:02:00,,0832.1,4.99,0.00,29.6,27.2,00.0,38.3,31.4,31.9,0000.0,0018.22,0009.15,0007.91
2022-07-11 23:03:00,,0832.1,4.99,0.00,29.6,27.3,00.0,38.3,31.3,31.9,0000.0,0018.27,0009.15,0007.92
2022-07-11 23:04:00,,0832.1,5.00,0.00,29.5,27.5,00.0,38.3,31.4,31.9,0000.0,0018.09,0009.12,0007.91
2022-07-11 23:05:00,,0832.0,5.01,0.00,29.5,27.6,00.0,38.3,31.4,32.1,0000.0,0018.58,0009.12,0007.91
2022-07-11 23:06:00,,0832.0,4.99,0.00,29.5,27.8,00.0,38.3,31.4,31.8,0000.0,0018.59,0009.16,0007.92
2022-07-11 23:07:00,,0832.0,5.00,0.00,29.5,28.0,00.0,38.3,31.5,31.6,0000.0,0018.80,0009.22,0007.97
2022-07-11 23:08:00,,0832.0,5.02,0.00,29.6,28.2,00.0,38.3,31.5,31.7,0001.2,0017.99,0009.25,0008.00
2022-07-11 23:09:00,,0832.0,5.00,0.00,29.6,28.3,00.0,38.3,31.6,31.7,0000.8,0017.90,0009.29,0008.02
2022-07-11 23:10:00,,0832.0,5.00,0.00,29.6,28.5,00.0,38.3,31.7,31.5,0000.0,0017.43,0009.27,0008.02
2022-07-11 23:11:00,,0832.0,5.01,0.00,29.7,28.6,00.0,38.3,31.7,31.5,0000.0,0016.64,0009.29,0008.05
2022-07-11 23:12:00,,0832.1,5.00,0.00,29.7,28.7,00.0,38.4,31.8,31.4,0000.0,0016.42,0009.40,0008.09
2022-07-11 23:13:00,,0832.1,5.01,0.00,29.8,28.8,00.0,38.4,31.8,31.4,0000.0,0017.23,0009.45,0008.13
2022-07-11 23:14:00,,0832.1,5.00,0.00,29.8,28.7,00.0,38.4,31.8,31.4,0000.0,0017.64,0009.47,0008.14
2022-07-11 23:15:00,,0832.1,5.00,0.00,29.8,28.0,00.0,38.3,31.7,31.3,0000.0,0018.00,0009.48,0008.15
2022-07-11 23:16:00,,0832.1,5.00,0.00,29.7,27.4,00.0,38.3,31.5,31.2,0000.0,0017.89,0009.49,0008.18
2022-07-11 23:17:00,,0832.0,5.01,0.00,29.7,27.3,00.0,38.3,31.4,31.4,0000.0,0018.03,0009.52,0008.20
2022-07-11 23:18:00,,0831.9,5.00,0.00,29.6,27.3,00.0,38.3,31.3,31.5,0000.0,0018.10,0009.49,0008.19
2022-07-11 23:19:00,,0831.9,4.99,0.00,29.6,27.5,00.0,38.3,31.4,31.7,0000.0,0018.35,0009.45,0008.17
2022-07-11 23:20:00,,0832.0,5.00,0.00,29.6,27.7,00.0,38.3,31.4,31.7,0000.0,0018.66,0009.38,0008.16
2022-07-11 23:21:00,,0832.0,5.01,0.00,29.6,27.9,00.0,38.3,31.5,31.6,0000.0,0019.14,0009.39,0008.17
2022-07-11 23:22:00,,0831.9,5.00,0.00,29.6,28.1,00.0,38.3,31.5,31.6,0000.0,0019.92,0009.38,0008.17
2022-07-11 23:23:00,,0831.9,5.00,0.00,29.6,28.2,00.0,38.3,31.6,31.4,0000.0,0020.39,0009.33,0008.16
2022-07-11 23:24:00,,0831.9,5.00,0.00,29.6,28.4,00.0,38.3,31.6,31.4,0000.0,0020.21,0009.28,0008.15
2022-07-11 23:25:00,,0831.9,5.00,0.00,29.7,28.5,00.0,38.3,31.7,31.4,0000.0,0020.52,0009.36,0008.14
2022-07-11 23:26:00,,0831.9,5.00,0.00,29.7,28.7,00.0,38.4,31.7,31.4,0000.0,0020.78,0009.47,0008.16
2022-07-11 23:27:00,,0832.0,5.00,0.00,29.7,28.8,00.0,38.4,31.8,31.4,0000.0,0021.21,0009.53,0008.18
2022-07-11 23:28:00,,0831.9,4.98,0.00,29.8,28.9,00.0,38.4,31.8,31.3,0000.0,0021.26,0009.55,0008.22
2022-07-11 23:29:00,,0832.0,4.99,0.00,29.8,28.7,00.0,38.4,31.8,31.2,0000.0,0021.22,0009.58,0008.25
2022-07-11 23:30:00,,0831.9,5.00,0.00,29.8,28.0,00.0,38.4,31.7,31.3,0000.9,0021.59,0009.62,0008.28
2022-07-11 23:31:00,,0832.0,4.99,0.00,29.7,27.4,00.0,38.3,31.5,31.3,0000.0,0022.26,0009.72,0008.33
2022-07-11 23:32:00,,0832.0,5.00,0.00,29.7,27.3,00.0,38.4,31.4,31.5,0000.0,0022.88,0009.77,0008.37
2022-07-11 23:33:00,,0832.0,5.00,0.00,29.6,27.4,00.0,38.4,31.4,31.7,0000.0,0022.28,0009.80,0008.38
2022-07-11 23:34:00,,0832.0,5.01,0.00,29.6,27.5,00.0,38.3,31.4,31.7,0000.0,0022.00,0009.84,0008.39
2022-07-11 23:35:00,,0832.0,5.00,0.00,29.6,27.7,00.0,38.3,31.5,31.7,0000.3,0021.41,0009.87,0008.43
2022-07-11 23:36:00,,0831.9,5.01,0.00,29.6,27.9,00.0,38.3,31.5,31.7,0000.0,0020.73,0009.82,0008.46
2022-07-11 23:37:00,,0831.9,5.00,0.00,29.6,28.1,00.0,38.3,31.6,31.6,0000.0,0020.14,0009.72,0008.46
2022-07-11 23:38:00,,0831.9,5.00,0.00,29.6,28.3,00.0,38.4,31.6,31.5,0000.0,0019.28,0009.66,0008.44
2022-07-11 23:39:00,,0831.9,5.01,0.00,29.7,28.5,00.0,38.4,31.7,31.5,0000.0,0019.25,0009.66,0008.40
2022-07-11 23:40:00,,0831.8,5.00,0.00,29.7,28.6,00.0,38.4,31.7,31.4,0000.0,0019.01,0009.61,0008.36
2022-07-11 23:41:00,,0831.8,5.00,0.00,29.7,28.7,00.0,38.4,31.8,31.5,0000.0,0018.38,0009.56,0008.32
2022-07-11 23:42:00,,0831.8,5.00,0.00,29.8,28.9,00.0,38.4,31.9,31.4,0000.0,0017.34,0009.50,0008.27
2022-07-11 23:43:00,,0831.8,4.98,0.00,29.8,28.6,00.0,38.4,31.8,31.3,0000.0,0016.25,0009.42,0008.23
2022-07-11 23:44:00,,0831.7,5.00,0.00,29.8,27.8,00.0,38.4,31.6,31.3,0000.0,0015.98,0009.37,0008.19
2022-07-11 23:45:00,,0831.7,5.00,0.00,29.7,27.4,00.0,38.4,31.5,31.2,0000.0,0016.28,0009.34,0008.17
2022-07-11 23:46:00,,0831.7,5.00,0.00,29.6,27.3,00.0,38.4,31.4,31.2,0000.0,0015.80,0009.31,0008.15
2022-07-11 23:47:00,,0831.7,5.00,0.00,29.6,27.4,00.0,38.3,31.3,31.4,0000.0,0015.75,0009.30,0008.15
2022-07-11 23:48:00,,0831.7,5.00,0.00,29.6,27.6,00.0,38.3,31.4,31.5,0000.0,0016.47,0009.31,0008.14
2022-07-11 23:49:00,,0831.8,4.99,0.00,29.6,27.8,00.0,38.3,31.4,31.5,0000.0,0017.66,0009.35,0008.15
2022-07-11 23:50:00,,0831.7,5.00,0.00,29.6,27.9,00.0,38.3,31.5,31.7,0000.0,0017.79,0009.36,0008.15
2022-07-11 23:51:00,,0831.7,5.00,0.00,29.6,28.1,00.0,38.3,31.6,32.0,0000.0,0017.92,0009.41,0008.14
2022-07-11 23:52:00,,0831.8,5.00,0.00,29.6,28.3,00.0,38.3,31.6,31.9,0000.0,0018.03,0009.42,0008.15
2022-07-11 23:53:00,,0831.7,5.00,0.00,29.7,28.5,00.0,38.4,31.7,31.4,0000.0,0018.58,0009.46,0008.18
2022-07-11 23:54:00,,0831.7,5.00,0.00,29.7,28.6,00.0,38.4,31.7,31.3,0000.0,0019.12,0009.51,0008.20
2022-07-11 23:55:00,,0831.7,5.00,0.00,29.7,28.7,00.0,38.4,31.7,31.2,0000.0,0019.21,0009.53,0008.23
2022-07-11 23:56:00,,0831.7,4.99,0.00,29.8,28.8,00.0,38.4,31.8,31.4,0000.0,0018.73,0009.52,0008.25
2022-07-11 23:57:00,,0831.7,4.99,0.00,29.8,28.4,00.0,38.4,31.8,31.2,0000.0,0018.86,0009.53,0008.22
2022-07-11 23:58:00,,0831.7,5.00,0.00,29.8,27.6,00.0,38.3,31.6,31.1,0000.0,0018.30,0009.49,0008.20
2022-07-11 23:59:00,,0831.7,5.00,0.00,29.7,27.2,00.0,38.3,31.5,31.2,0000.0,0017.80,0009.49,0008.20
